Weather reports worldwide

Advertisment
Porto Colom, Spain (8309): temperature & dewpoint: 07.07.2020 06:00:00 - 13.07.2020 06:00:00 (CEST)Porto Colom, Spain (8309): wind speed & gusts: 07.07.2020 06:00:00 - 13.07.2020 06:00:00 (CEST)Porto Colom, Spain (8309): wind direction: 07.07.2020 06:00:00 - 13.07.2020 06:00:00 (CEST)Porto Colom, Spain (8309): reduced air pressure: 07.07.2020 06:00:00 - 13.07.2020 06:00:00 (CEST)Porto Colom, Spain (8309): visibility: 07.07.2020 06:00:00 - 13.07.2020 06:00:00 (CEST)Porto Colom, Spain (8309): sunshine duration: 07.07.2020 06:00:00 - 13.07.2020 06:00:00 (CEST)Porto Colom, Spain (8309): precipitation: 07.07.2020 06:00:00 - 13.07.2020 06:00:00 (CEST)
Date & Time tt [°C] td [°C] ff [km/h] ff [kn] fx [km/h] fx [kn] dd ppp [hPa] vv [km] sd [min] rr [mm]
13.07.2020 06:00:00 - - - - - - - - - - -
13.07.2020 05:00:00 22,5 14,0 10 5 14 8 NNE 1016,2 20 0 0,0
13.07.2020 04:00:00 22,9 18,0 6 3 11 6 N 1016,7 20 0 0,0
13.07.2020 03:00:00 24,0 19,9 8 4 14 8 NE 1015,9 20 0 0,0
13.07.2020 02:00:00 23,5 16,3 4 2 12 7 WNW 1017,7 20 0 -
13.07.2020 01:00:00 23,6 16,4 3 1 9 5 S 1018,0 20 0 0,0
13.07.2020 00:00:00 23,2 15,5 7 4 15 8 N 1018,6 20 0 0,0
12.07.2020 23:00:00 23,9 16,1 4 2 11 6 NW 1019,3 20 0 0,0
12.07.2020 22:00:00 24,5 17,9 4 2 8 5 N 1018,7 20 0 0,0
12.07.2020 21:00:00 25,3 17,5 5 3 11 6 NE 1018,9 20 29 0,0
12.07.2020 20:00:00 27,3 16,9 8 4 20 11 E 1018,8 20 55 -
12.07.2020 19:00:00 26,5 18,9 14 8 21 11 E 1018,4 20 27 0,0
12.07.2020 18:00:00 27,2 19,3 9 5 21 11 E 1018,8 20 28 0,0
12.07.2020 17:00:00 28,6 17,5 14 8 23 13 E 1018,1 20 51 0,0
12.07.2020 16:00:00 27,7 18,7 14 8 28 15 ENE 1018,3 20 49 0,0
12.07.2020 15:00:00 27,6 19,1 18 10 27 15 ENE 1018,1 20 60 0,0
12.07.2020 14:00:00 28,0 20,1 13 7 24 13 E 1018,1 20 44 -
12.07.2020 13:00:00 28,2 18,8 13 7 22 12 ESE 1018,9 20 60 0,0
12.07.2020 12:00:00 28,5 19,1 9 5 16 8 E 1019,2 20 60 0,0
12.07.2020 11:00:00 27,9 18,8 9 5 19 10 ENE 1018,8 17 60 0,0
12.07.2020 10:00:00 27,0 18,5 12 6 24 13 ENE 1018,5 20 60 0,0
12.07.2020 09:00:00 26,0 19,1 12 6 20 11 NE 1018,2 20 60 0,0
12.07.2020 08:00:00 24,3 18,5 9 5 14 8 NNE 1017,6 20 57 -
12.07.2020 07:00:00 21,1 16,3 10 5 16 9 N 1017,0 20 0 0,0
12.07.2020 06:00:00 21,4 16,4 10 5 15 8 NNE 1016,7 20 0 0,0
12.07.2020 05:00:00 21,4 16,8 11 6 15 8 NNE 1016,7 20 0 0,0
12.07.2020 04:00:00 21,2 17,6 10 6 15 8 N 1016,9 20 0 0,0
12.07.2020 03:00:00 21,6 18,0 10 5 14 7 NNE 1017,0 20 0 0,0
12.07.2020 02:00:00 22,4 18,8 8 5 16 8 NNE 1017,3 17 0 -
12.07.2020 01:00:00 22,5 18,7 9 5 14 8 NNE 1017,7 17 0 0,0
12.07.2020 00:00:00 22,8 18,5 9 5 14 8 NNE 1017,8 20 0 0,0
11.07.2020 23:00:00 23,6 18,7 7 4 24 13 N 1017,7 20 0 0,0
11.07.2020 22:00:00 24,8 19,6 12 7 21 12 NE 1017,1 20 0 0,0
11.07.2020 21:00:00 25,4 19,8 14 8 23 12 NE 1016,9 19 35 0,0
11.07.2020 20:00:00 26,8 19,6 13 7 29 16 NE 1016,5 19 60 -
11.07.2020 19:00:00 27,2 19,8 19 10 31 17 NE 1016,4 20 60 0,0
11.07.2020 18:00:00 27,9 20,5 17 9 29 16 ENE 1016,7 20 60 0,0
11.07.2020 17:00:00 28,0 19,8 18 10 29 16 ENE 1016,9 20 60 0,0
11.07.2020 16:00:00 28,4 20,1 18 10 28 15 ENE 1017,1 20 60 0,0
11.07.2020 15:00:00 28,1 19,6 18 10 35 19 ENE 1017,2 17 60 0,0
11.07.2020 14:00:00 27,9 20,7 25 14 38 21 NE 1017,1 15 60 -
11.07.2020 13:00:00 28,7 20,2 20 11 36 19 ENE 1016,9 20 60 0,0
11.07.2020 12:00:00 28,3 20,1 20 11 35 19 ENE 1016,6 20 60 0,0
11.07.2020 11:00:00 27,6 19,6 18 10 34 19 ENE 1016,2 20 60 0,0
11.07.2020 10:00:00 26,7 19,8 18 10 34 18 ENE 1016,0 19 60 0,0
11.07.2020 09:00:00 26,0 20,5 18 10 36 20 ENE 1015,6 20 60 0,0
11.07.2020 08:00:00 24,6 21,1 15 8 28 15 NE 1014,9 20 47 -
11.07.2020 07:00:00 24,5 21,3 21 12 33 18 NE 1014,4 19 0 0,0
11.07.2020 06:00:00 24,3 21,6 21 12 33 18 NE 1014,3 17 0 0,0
11.07.2020 05:00:00 23,3 21,2 13 7 24 13 NNE 1014,1 14 0 0,0
11.07.2020 04:00:00 23,1 21,0 11 6 18 10 NNE 1014,3 13 0 0,0
11.07.2020 03:00:00 22,8 20,9 9 5 16 9 NNE 1014,4 12 0 0,0
11.07.2020 02:00:00 22,5 20,4 11 6 14 7 N 1014,7 15 0 -
11.07.2020 01:00:00 23,1 20,6 9 5 12 7 N 1015,1 16 0 0,0
11.07.2020 00:00:00 23,6 20,7 8 4 9 5 N 1014,9 16 0 0,0
10.07.2020 23:00:00 24,7 21,2 4 2 10 6 E 1014,9 11 0 0,0
10.07.2020 22:00:00 25,1 21,4 6 3 11 6 ESE 1014,3 8 0 0,0
10.07.2020 21:00:00 25,6 21,3 9 5 21 11 E 1013,6 16 30 0,0
10.07.2020 20:00:00 26,7 21,3 13 7 32 18 ENE 1013,6 16 36 -
10.07.2020 19:00:00 26,9 21,6 18 10 29 15 NE 1012,9 17 30 0,0
10.07.2020 18:00:00 27,5 21,5 13 7 21 11 ENE 1013,3 17 52 0,0
10.07.2020 17:00:00 28,9 21,1 6 4 14 8 E 1014,0 18 51 0,0
10.07.2020 16:00:00 30,1 21,4 5 3 17 9 S 1014,4 11 23 0,0
10.07.2020 15:00:00 27,4 22,8 7 4 22 12 SE 1015,1 11 0 0,0
10.07.2020 14:00:00 26,8 22,4 9 5 39 21 ENE 1014,6 14 0 -
10.07.2020 13:00:00 26,4 22,9 31 17 42 23 SW 1016,1 11 0 0,0
10.07.2020 12:00:00 27,2 21,5 16 9 27 15 SSW 1016,4 12 3 0,0
10.07.2020 11:00:00 26,3 19,7 19 11 29 16 E 1013,2 20 2 0,0
10.07.2020 10:00:00 26,7 20,3 18 10 32 18 ENE 1014,0 16 45 0,0
10.07.2020 09:00:00 25,6 19,7 22 12 31 17 E 1013,8 20 0 0,0
10.07.2020 08:00:00 25,0 21,5 20 11 33 18 E 1013,8 20 0 -
10.07.2020 07:00:00 24,8 21,3 14 8 37 20 E 1013,9 18 0 0,0
10.07.2020 06:00:00 23,9 20,9 16 8 30 16 NE 1013,9 20 0 0,0
10.07.2020 05:00:00 23,4 20,3 10 5 22 12 N 1015,1 20 0 0,0
10.07.2020 04:00:00 22,8 19,8 8 4 11 6 NNE 1015,9 20 0 0,0
10.07.2020 03:00:00 23,0 20,1 9 5 13 7 N 1016,2 20 0 0,0
10.07.2020 02:00:00 23,1 20,1 9 5 18 10 N 1016,1 20 0 -
10.07.2020 01:00:00 24,5 20,8 11 6 17 9 ENE 1015,0 20 0 0,0
10.07.2020 00:00:00 24,5 20,6 6 3 13 7 E 1015,3 17 0 0,0
09.07.2020 23:00:00 24,7 20,6 8 5 21 11 E 1015,2 19 0 0,0
09.07.2020 22:00:00 24,9 20,4 11 6 23 12 ESE 1014,6 20 0 0,0
09.07.2020 21:00:00 25,2 20,7 12 7 29 16 ESE 1014,5 20 0 0,0
09.07.2020 20:00:00 25,4 20,4 17 9 29 16 E 1014,2 20 7 -
09.07.2020 19:00:00 25,7 20,7 17 9 27 15 ENE 1014,4 20 0 0,0
09.07.2020 18:00:00 26,3 20,9 11 6 19 10 E 1015,2 20 0 0,0
09.07.2020 17:00:00 26,9 20,5 11 6 19 10 S 1016,6 20 37 0,0
09.07.2020 16:00:00 28,4 20,1 9 5 18 10 SSE 1017,1 20 49 0,0
09.07.2020 15:00:00 26,8 20,7 13 7 27 14 E 1016,8 20 12 0,0
09.07.2020 14:00:00 28,5 20,8 11 6 20 11 E 1017,4 20 60 -
09.07.2020 13:00:00 27,8 20,9 11 6 32 17 ESE 1017,1 16 51 0,0
09.07.2020 12:00:00 26,7 19,8 21 12 35 19 ESE 1015,2 20 57 0,0
09.07.2020 11:00:00 28,3 19,8 8 4 16 9 E 1017,3 20 60 0,0
09.07.2020 10:00:00 27,6 18,8 6 3 11 6 E 1017,4 19 60 0,0
09.07.2020 09:00:00 26,5 18,9 4 2 7 4 E 1017,1 20 60 0,0
09.07.2020 08:00:00 24,5 19,6 3 2 13 7 NE 1016,7 20 21 -
09.07.2020 07:00:00 24,1 19,8 9 5 18 10 ESE 1015,9 20 0 0,0
09.07.2020 06:00:00 23,9 20,1 6 3 18 10 ESE 1015,8 20 0 0,0
09.07.2020 05:00:00 24,1 19,6 12 7 20 11 SE 1015,2 20 0 0,0
09.07.2020 04:00:00 22,1 15,7 10 5 21 11 NNE 1015,5 20 0 0,0
09.07.2020 03:00:00 23,2 17,6 9 5 16 9 NE 1015,7 20 0 0,0
09.07.2020 02:00:00 23,7 15,7 9 5 15 8 ENE 1016,3 20 0 -
09.07.2020 01:00:00 22,8 16,1 6 3 9 5 N 1017,2 20 0 0,0
09.07.2020 00:00:00 23,3 15,9 6 3 10 5 NE 1017,3 20 0 0,0
08.07.2020 23:00:00 23,9 15,7 5 3 10 5 NNW 1018,1 20 0 0,0
08.07.2020 22:00:00 24,3 18,0 6 3 9 5 NNW 1017,8 20 0 0,0
08.07.2020 21:00:00 25,2 17,1 5 3 9 5 ENE 1016,6 20 11 0,0
08.07.2020 20:00:00 27,0 17,5 5 3 11 6 ENE 1016,2 20 60 -
08.07.2020 19:00:00 27,8 18,2 9 5 19 10 E 1015,4 20 60 0,0
08.07.2020 18:00:00 28,3 19,3 10 6 16 9 E 1016,1 20 60 0,0
08.07.2020 17:00:00 29,2 18,3 8 4 14 7 ESE 1016,9 20 60 0,0
08.07.2020 16:00:00 29,0 18,5 9 5 22 12 E 1017,4 20 60 0,0
08.07.2020 15:00:00 29,2 18,9 13 7 23 12 E 1017,2 20 60 0,0
08.07.2020 14:00:00 28,4 18,5 11 6 21 11 E 1017,3 20 60 -
08.07.2020 13:00:00 28,3 18,1 10 6 17 9 ESE 1017,7 20 60 0,0
08.07.2020 12:00:00 28,5 15,1 10 5 16 9 ESE 1017,8 20 60 0,0
08.07.2020 11:00:00 27,5 17,9 5 3 11 6 E 1017,4 19 60 0,0
08.07.2020 10:00:00 26,4 19,8 5 3 9 5 E 1017,0 19 60 0,0
08.07.2020 09:00:00 25,1 20,1 5 3 8 4 ENE 1016,6 18 60 0,0
08.07.2020 08:00:00 22,6 20,1 3 2 6 3 NNW 1016,4 19 57 -
08.07.2020 07:00:00 21,0 19,8 4 2 10 5 NNW 1016,0 12 1 0,0
08.07.2020 06:00:00 20,5 19,3 7 4 13 7 N 1015,9 13 0 0,0
08.07.2020 05:00:00 20,6 19,1 8 4 11 6 N 1015,8 14 0 0,0
08.07.2020 04:00:00 21,7 20,0 4 2 6 3 NNW 1016,1 14 0 0,0
08.07.2020 03:00:00 22,0 20,1 4 2 8 5 NW 1016,3 14 0 0,0
08.07.2020 02:00:00 22,7 20,1 4 2 8 5 N 1016,6 15 0 -
08.07.2020 01:00:00 23,5 20,3 6 3 16 9 WSW 1016,6 14 0 0,0
08.07.2020 00:00:00 24,0 20,7 13 7 19 10 SSW 1016,4 15 0 0,0
07.07.2020 23:00:00 24,6 20,9 14 7 18 10 S 1016,3 17 0 0,0
07.07.2020 22:00:00 24,9 21,0 13 7 20 11 SSW 1015,7 18 0 0,0
07.07.2020 21:00:00 25,1 20,8 19 10 25 13 SSW 1015,2 19 0 0,0
07.07.2020 20:00:00 25,6 21,1 20 11 31 17 SSW 1015,2 20 3 -
07.07.2020 19:00:00 26,0 20,8 25 13 33 18 SSW 1014,9 17 22 0,0
07.07.2020 18:00:00 26,9 20,7 27 15 37 20 SSW 1014,9 16 54 0,0
07.07.2020 17:00:00 27,9 20,7 32 18 40 22 SSW 1015,3 17 60 0,0
07.07.2020 16:00:00 28,3 20,1 29 16 36 19 SSW 1015,5 18 60 0,0
07.07.2020 15:00:00 27,6 19,9 27 15 33 18 SSW 1015,9 15 60 0,0
07.07.2020 14:00:00 27,2 19,8 24 13 28 15 S 1016,1 17 53 -
07.07.2020 13:00:00 27,1 19,2 19 11 23 12 S 1016,4 15 37 0,0
07.07.2020 12:00:00 27,5 19,3 10 5 18 10 SSE 1016,3 12 51 0,0
07.07.2020 11:00:00 28,4 19,1 6 4 13 7 ESE 1016,2 15 60 0,0
07.07.2020 10:00:00 26,9 19,0 6 4 13 7 E 1016,1 20 53 0,0
07.07.2020 09:00:00 25,9 18,5 7 4 11 6 E 1016,0 17 60 0,0
07.07.2020 08:00:00 24,9 20,6 5 3 10 5 E 1015,7 18 42 -
07.07.2020 07:00:00 21,5 19,4 6 3 6 4 N 1015,6 16 0 0,0
07.07.2020 06:00:00 21,3 19,4 4 2 6 3 NNW 1015,5 15 0 0,0

tt = temperature
td = dewpoint
ff = wind speed
fx = gusts
dd = wind direction
ppp = reduced air pressure
vv = visibility
sd = sunshine duration
rr = precipitation

Next stations